#timestamp,LO_Frequency,Hit,StdDev 
1558465215.9,286047002.6,N
1558465235.7,286047002.7,N
1558465255.5,286047002.6,N
1558465275.4,286047000.0,N
1558465295.2,286047001.0,N
1558465315.1,286046999.1,N
1558465316.0,286046999.1,N
1558465335.8,286047000.7,N
1558465355.6,286047000.3,N
1558465375.5,286047001.2,N
1558465395.3,286047001.1,N
1558465415.1,286046998.9,N
1558465435.9,286047000.3,N
1558465455.7,286047002.8,N
1558465475.6,286047002.8,N
1558465495.4,286047002.1,N
1558465515.2,286047003.0,N
1558465535.1,286047001.8,N
1558465536.0,286047001.8,N
1558465555.8,286047000.1,N
1558465575.6,286047000.4,N
1558465595.5,286046998.6,N
1558465615.3,286047000.5,N
1558465635.2,286046999.7,N
1558465655.9,286046999.7,N
1558465675.7,286047001.1,N
1558465695.6,286046999.8,N
1558465715.4,286047002.2,N
1558465735.2,286047002.0,N
1558465755.1,286047001.5,N
1558465756.0,286047001.5,N
1558465775.8,286047000.4,N
1558465795.7,286046998.1,N
1558465815.5,286046999.0,N
1558465835.3,286047001.1,N
1558465855.2,286047001.0,N
1558465875.0,286047002.7,N
1558465875.9,286047002.7,N
1558465895.8,286047003.2,N
1558465915.6,286047001.8,N
1558465935.4,286047001.3,N
1558465955.3,286047003.0,N
1558465975.1,286047004.7,Y
1558465995.8,286047003.1,P
1558466015.7,286047005.0,P
1558466035.5,286047003.7,N
1558466055.4,286047003.8,N
1558466075.2,286047004.2,Y
1558466095.0,286047002.6,P
1558466095.9,286047002.6,P
1558466115.8,286046998.6,P
1558466135.6,286046998.2,N
1558466155.4,286047001.2,N
1558466175.3,286047000.7,N
1558466195.1,286047000.6,N
1558466215.9,286046997.0,N
1558466235.7,286046995.0,N
1558466255.5,286046998.0,N
1558466275.4,286046999.1,N
1558466295.2,286046997.8,N
1558466315.0,286046997.2,N
1558466315.9,286046997.2,N
1558466335.8,286046997.8,N
1558466355.6,286046996.8,N
1558466375.5,286046995.4,N
1558466395.3,286046995.2,N
1558466415.1,286046996.7,N
1558466435.9,286046996.7,N
1558466455.7,286046997.7,N
1558466475.6,286046995.5,N
1558466495.4,286046997.0,N
1558466515.2,286046998.1,N
1558466535.1,286046998.4,N
1558466536.0,286046998.4,N
1558466555.8,286046998.3,N
1558466575.6,286047001.4,N
1558466595.5,286047000.2,N
1558466615.3,286047000.4,N
1558466635.2,286047000.3,N
1558466655.9,286046998.8,N
1558466675.7,286047001.0,N
1558466695.6,286047001.5,N
1558466715.4,286047000.2,N
1558466735.2,286047001.4,N
1558466755.1,286047001.0,N
1558466756.0,286047001.0,N
1558466775.8,286047002.0,N
1558466795.7,286047002.0,N
1558466815.5,286047002.2,N
1558466835.3,286047000.3,N
1558466855.2,286047000.4,N
1558466875.0,286047001.2,N
1558466875.9,286047001.2,N
1558466895.8,286047002.8,N
1558466915.6,286047001.0,N
1558466935.4,286047000.9,N
1558466955.3,286047002.4,N
1558466975.1,286046999.9,N
1558466995.8,286047001.1,N
1558467015.7,286047001.1,N
1558467035.5,286047000.9,N
1558467055.4,286046998.1,N
1558467075.2,286046999.2,N
1558467095.0,286046998.3,N
1558467095.9,286046998.3,N
1558467115.8,286047001.2,N
1558467135.6,286046996.6,N
1558467155.4,286046997.0,N
1558467175.3,286046997.6,N
1558467195.1,286046998.5,N
1558467215.9,286046996.8,N
1558467235.7,286046995.0,N
1558467255.5,286046995.0,N
1558467275.4,286046996.5,N
1558467295.2,286046996.7,N
1558467315.0,286046997.1,N
1558467315.9,286046997.1,N
1558467335.8,286046999.5,N
1558467355.6,286046999.7,N
1558467375.5,286046999.9,N
1558467395.3,286047001.2,N
1558467415.1,286046998.7,N
1558467435.9,286047001.2,N
1558467455.7,286046998.9,N
1558467475.5,286046998.5,N
1558467495.4,286046999.5,N
1558467515.2,286047000.5,N
1558467535.1,286047000.3,N
1558467536.0,286047000.3,N
1558467555.8,286047000.8,N
1558467575.6,286047001.1,N
1558467595.5,286047002.1,N
1558467615.3,286047002.2,N
1558467635.1,286046998.5,N
1558467655.9,286046998.1,N
1558467675.7,286047000.9,N
1558467695.6,286047000.2,N
1558467715.4,286046998.2,N
1558467735.2,286047002.8,N
1558467755.1,286047002.6,N
1558467756.0,286047002.6,N
1558467775.8,286047000.6,N
1558467795.6,286047000.3,N
1558467815.5,286046999.7,N
1558467835.3,286046998.9,N
1558467855.2,286047001.0,N
1558467875.9,286047002.7,N
1558467895.7,286047001.0,N
1558467915.6,286046998.2,N
1558467935.4,286047000.3,N
1558467955.2,286047001.7,N
1558467975.1,286047000.3,N
1558467976.0,286047000.3,N
1558467995.8,286047000.2,N
1558468015.7,286047001.0,N
1558468035.5,286046999.9,N
1558468055.3,286046996.9,N
1558468075.2,286046997.0,N
1558468095.0,286046996.7,N
1558468095.9,286046996.7,N
1558468115.8,286046999.5,N
1558468135.6,286046998.7,N
1558468155.4,286046998.9,N
1558468175.3,286047000.1,N
1558468195.1,286047000.0,N
1558468215.8,286047000.5,N
1558468235.7,286047002.0,N
1558468255.5,286047001.2,N
1558468275.4,286047002.2,N
1558468295.2,286046998.2,N
1558468315.0,286046998.3,N
1558468315.9,286046998.3,N
1558468335.8,286046998.1,N
1558468355.6,286047002.8,N
1558468375.4,286047000.6,N
1558468395.3,286047001.2,N
1558468415.1,286047001.9,N
1558468435.9,286047004.2,N
1558468455.7,286047001.9,N
1558468475.5,286047000.4,N
1558468495.4,286047002.2,N
1558468515.2,286047003.8,N
1558468535.0,286047001.6,N
1558468535.9,286047001.6,N
1558468555.8,286047004.4,N
1558468575.6,286047006.0,N
1558468595.5,286047005.5,N
1558468615.3,286047001.3,N
1558468635.1,286047001.0,N
1558468655.9,286047001.2,N
1558468675.7,286046999.7,N
1558468695.5,286047001.4,N
1558468715.4,286047002.0,N
1558468735.2,286046999.8,N
1558468755.0,286047000.5,N
1558468756.0,286047000.5,N
1558468775.8,286047003.7,N
1558468795.6,286047005.2,N
